EDT,Max TemperatureF,Mean TemperatureF,Min TemperatureF,Max Dew PointF,MeanDew PointF,Min DewpointF,Max Humidity, Mean Humidity, Min Humidity, Max Sea Level PressureIn, Mean Sea Level PressureIn, Min Sea Level PressureIn, Max VisibilityMiles, Mean VisibilityMiles, Min VisibilityMiles, Max Wind SpeedMPH, Mean Wind SpeedMPH, Max Gust SpeedMPH,PrecipitationIn, CloudCover, Events, WindDirDegrees
2013-7-1,80,73,66,66,61,48,93,72,51,30.19,30.04,29.94,10,8,4,9,2,14,0.01,4,Rain,306
2013-7-2,67,62,57,56,52,45,93,71,48,30.31,30.26,30.18,10,6,2,13,4,17,0.23,8,Rain,48
2013-7-3,88,72,56,70,61,54,93,71,48,30.21,30.15,30.07,10,8,4,8,2,13,0.00,5,,247
2013-7-4,90,79,67,70,66,61,97,69,41,30.15,30.09,30.03,10,9,6,14,4,20,0.00,0,,288
2013-7-5,88,80,71,69,66,62,93,70,46,30.07,30.02,29.97,10,10,9,17,5,24,0.00,1,,291
2013-7-6,86,79,71,69,65,62,84,66,48,30.00,29.95,29.89,10,10,10,14,5,23,0.00,2,,280
2013-7-7,89,79,68,65,63,62,81,61,41,29.95,29.90,29.87,10,10,8,17,5,23,T,1,,284
2013-7-8,78,68,57,60,53,46,90,67,43,30.11,30.04,29.97,10,10,1,13,2,17,0.02,4,Rain,30
2013-7-9,81,68,55,64,59,53,93,68,42,30.17,30.12,30.08,10,10,10,9,2,17,0.00,3,,159
2013-7-10,77,71,65,65,63,61,93,81,68,30.10,29.96,29.79,10,9,5,10,5,17,0.03,8,Rain,166
2013-7-11,82,73,63,67,63,53,100,70,39,30.01,29.82,29.74,10,8,2,12,3,17,T,5,Rain-Thunderstorm,275
2013-7-12,83,69,54,56,49,41,86,55,23,30.24,30.16,30.04,10,9,4,13,3,17,0.00,0,,29
2013-7-13,88,70,51,60,53,46,93,60,27,30.33,30.28,30.24,10,10,10,8,2,14,0.00,0,,187
2013-7-14,91,75,59,64,60,55,90,61,32,30.29,30.23,30.17,10,10,10,10,3,16,0.00,0,,292
2013-7-15,94,80,66,66,60,51,81,53,24,30.17,30.11,30.04,10,10,10,16,6,23,0.00,0,,287
2013-7-16,92,80,68,66,63,59,84,61,37,30.19,30.14,30.11,10,9,2,10,3,15,0.00,4,,42
2013-7-17,90,77,63,71,66,60,93,72,50,30.19,30.05,29.90,10,8,2,15,4,21,0.18,3,Rain-Thunderstorm,267
2013-7-18,85,77,68,69,63,50,90,63,35,30.02,29.97,29.93,10,10,9,12,3,17,0.00,3,Rain,105
2013-7-19,91,79,66,75,68,61,97,77,56,29.93,29.74,29.56,10,8,2,17,3,28,0.14,5,Rain-Thunderstorm,199
2013-7-20,85,74,62,69,64,54,84,63,42,,,,10,10,10,12,5,22,T,3,Rain,274
2013-7-21,77,65,52,54,48,41,86,57,28,30.06,29.99,29.95,10,10,9,14,4,25,0.00,0,,305
2013-7-22,80,64,48,61,51,45,93,66,38,30.09,30.03,29.96,10,10,10,12,3,17,0.00,1,,243
2013-7-23,68,64,59,66,62,53,93,86,78,29.94,29.69,29.55,10,6,0,10,2,14,1.35,7,Fog-Rain,24
2013-7-24,80,69,57,67,61,47,100,77,53,29.99,29.65,29.55,10,6,0,20,6,30,T,6,Fog,290
2013-7-25,73,62,50,58,51,47,89,68,46,30.17,30.12,30.01,10,10,9,10,2,14,0.00,1,,3
2013-7-26,65,63,60,63,59,53,93,80,67,30.16,30.06,29.94,10,7,2,14,7,20,0.76,8,Rain,9
2013-7-27,80,70,59,62,59,57,93,72,51,30.08,29.96,29.89,10,8,1,20,5,23,0.75,5,Rain,314
2013-7-28,82,70,58,64,61,57,97,74,51,30.11,30.07,30.03,10,10,5,13,3,16,0.01,3,,128
2013-7-29,73,68,62,66,63,60,93,83,73,30.08,30.05,30.03,10,7,1,8,3,13,0.10,7,Rain,97
2013-7-30,78,69,60,64,61,53,100,72,43,30.07,30.04,30.00,10,6,0,15,4,20,0.01,5,Fog,283
2013-7-31,81,69,56,59,55,51,93,65,36,30.08,30.04,30.01,10,10,7,14,4,18,0.00,1,,285